Torna al catalogo

STARLINK-37982

AttivoComunicazioniVLEO
NORAD 100285·PAYLOAD·🇺🇸 United States

Lanciato Aug 11, 2026 da Cape Canaveral Space Force Station

Loading…

Prossimi Passaggi (prossime 24 ore)

TLE

ObsoletoSource: Space-Track

Epoca: Sep 8, 2026, 16:21 UTC

1 A0285U 26183P   26251.68152251 -.00983050  00000-0 -84074-2 0  9993
2 A0285  53.1592 315.1828 0002188  37.2582 322.8588 15.71215578  4457

Traccia STARLINK-37982 in tempo reale con AllMySat

Download on the App Store